Regional Weather Roundup
Issued by NWS

Home | Current Version | Previous Version | Text Only | Print | Product List | Glossary Off
Versions: 1 2 3 4 5 6 7 8 9 10 11 12 13 14 15 16 17 18 19 20 21 22 23 24 25 26 27 28 29 30 31 32 33 34 35 36 37 38 39 40 41 42 43 44 45 46 47 48 49 50

000
ASUS43 KMPX 172310
RWRMN
WEATHER ROUNDUP FOR MINNESOTA
NATIONAL WEATHER SERVICE TWIN CITIES/CHANHASSEN MN
600 PM CDT THU APR 17 2014


NOTE: "FAIR" INDICATES FEW OR NO CLOUDS BELOW 12,000 FEET WITH NO
SIGNIFICANT WEATHER AND/OR OBSTRUCTIONS TO VISIBILITY. N/A MEANS
CURRENT SKY AND/OR WEATHER CONDITIONS ARE NOT AVAILABLE.

MNZ060>063-068>070-180000-
   Twin Cities Metro

CITY           SKY/WX    TMP DP  RH WIND       PRES   REMARKS
TWIN CITIES    MOSUNNY   42  27  55 W7        30.29S
ST PAUL        MOSUNNY   42  25  50 VRB3      30.30S
CRYSTAL        SUNNY     40  24  53 NW5       30.28S
BLAINE         MOSUNNY   43  27  52 NW5       30.29S
EDEN PRAIRIE   SUNNY     42  26  53 NW5       30.28F
LAKEVILLE      MOSUNNY   39  27  60 NW5       30.28S
SOUTH ST PAUL  SUNNY     43  26  51 CALM      30.29S
LAKE ELMO      FAIR      41  28  60 N6        30.29F
$$
MNZ001>005-007-008-013>017-022>024-027-028-180000-
   Northwest Minnesota

CITY           SKY/WX    TMP DP  RH WIND       PRES   REMARKS
BEMIDJI        SUNNY     41   2  20 NE6       30.24S
HALLOCK        CLOUDY    39   9  28 N8        30.29F
ROSEAU         SUNNY     39   7  26 E7        30.28S
WARROAD        SUNNY     37   9  30 CALM      30.30S
THIEF RVR FALL SUNNY     39   7  26 CALM      30.28S
CROOKSTON      MOSUNNY   41  14  33 NW3       30.29S
FOSSTON        SUNNY     45  10  24 CALM      30.26F
DETROIT LAKES  SUNNY     41  12  30 NW5       30.26S
MOORHEAD       SUNNY     43  12  28 N7        30.29S
PARK RAPIDS    SUNNY     45   3  17 NW8       30.22S
$$
MNZ006-009>011-018-025>026-180000-
   North Central Minnesota

CITY           SKY/WX    TMP DP  RH WIND       PRES   REMARKS
BAUDETTE       SUNNY     38   7  27 N8        30.28S
FLAG ISLAND    SUNNY     36   5  27 N3        30.28S
INTL FALLS     SUNNY     38  17  42 E7        30.26S
WASKISH        SUNNY     39  16  38 W6        30.26R
BIG FORK       MOSUNNY   37  18  44 NE6       30.26R
LONGVILLE      SUNNY     43  16  33 W6        30.24R
GRAND RAPIDS   MOSUNNY   37  19  48 N8        30.25R
CRANE LAKE     CLOUDY    34  25  69 CALM      30.30R
ORR            CLOUDY    34  19  55 CALM      30.25R
COOK           CLOUDY    34  21  60 N3        30.27S
$$
MNZ012-019>021-037-180000-
   Northeast Minnesota

CITY           SKY/WX    TMP DP  RH WIND       PRES   REMARKS
DULUTH         PTSUNNY   36  21  54 NW10G18   30.24R
ELY            CLOUDY    30  21  69 N3        30.25R
HIBBING        CLOUDY    36  21  54 N12       30.26R
EVELETH        CLOUDY    34  21  60 NW7       30.27S WCI  28
DULUTH HARBOR  CLOUDY    37  27  65 CALM      30.29R
TWO HARBORS    CLOUDY    36  21  55 CALM      30.24R
SILVER BAY     SUNNY     34  27  75 NW6       30.24R WCI  29
GRAND MARAIS     N/A     33  31  92 CALM      30.25R
G MARAIS ARPRT LGT SNOW  30  23  74 NW7       30.20R WCI  23
$$
MNZ029>031-032-039>041-046>048-054>057-064-180000-
   West Central Minnesota

CITY           SKY/WX    TMP DP  RH WIND       PRES   REMARKS
FERGUS FALLS   SUNNY     43  10  26 CALM      30.24S
WHEATON        SUNNY     46  21  36 W5        30.29S
MORRIS         SUNNY     45  19  36 CALM      30.27S
ALEXANDRIA     SUNNY     41  14  33 W3        30.27R
ELBOW LAKE     FAIR      43  18  36 N5        30.26S
WADENA         SUNNY     43  14  31 NW5       30.24R
GLENWOOD       SUNNY     41  16  36 CALM      30.28S
APPLETON       SUNNY     43  18  36 CALM      30.29S
BENSON         SUNNY     41  18  38 NE3       30.29S
ORTONVILLE     SUNNY     41  19  42 SW5       30.29S
MADISON        SUNNY     43  21  42 CALM      30.29F
WILLMAR        FAIR      39  21  48 CALM      30.30S
$$
MNZ033>034-036-042>043-049>051-058-059-180000-
   Central Minnesota

CITY           SKY/WX    TMP DP  RH WIND       PRES   REMARKS
ST CLOUD       SUNNY     42  23  46 CALM      30.27S
SAUK CENTRE    FAIR      40  14  35 CALM      30.27S
PAYNESVILLE    SUNNY     37  22  53 CALM      30.29S
AITKIN         PTSUNNY   46  18  31 N6        30.22S
PINE RIVER     SUNNY     43  18  36 NE5       30.26S
BRAINERD       SUNNY     47  17  30 VRB3      30.24S
STAPLES        SUNNY     45   7  21 W5        30.24R
LONG PRAIRIE   FAIR      41  12  30 CALM      30.26S
LITTLE FALLS   SUNNY     41  21  45 SW6       30.26S
LITCHFIELD     SUNNY     39  23  52 NW5       30.30S
BUFFALO        SUNNY     39  23  52 NW3       30.30S
MAPLE LAKE     SUNNY     40  25  54 W6        30.29S
$$
MNZ037-044-045-052-053-180000-
   East Central Minnesota

CITY           SKY/WX    TMP DP  RH WIND       PRES   REMARKS
PRINCETON      SUNNY     43  23  45 W6        30.29R
MORA           SUNNY     41  21  45 NW6       30.28S
CAMBRIDGE      SUNNY     43  27  52 W6        30.26S
RUSH CITY      SUNNY     39  24  55 CALM      30.28S
MOOSE LAKE     MOSUNNY   41  21  45 NE6       30.24S
HINCKLEY       MOCLDY    41  25  52 CALM      30.26S
CLOQUET        PTSUNNY   37  21  52 N5G16     30.25S
MCGREGOR       MOSUNNY   41  23  48 NE7       30.24S
$$
MNZ071>073-080-081-089-090-097-098-180000-
   Southwest Minnesota

CITY           SKY/WX    TMP DP  RH WIND       PRES   REMARKS
MONTEVIDEO     SUNNY     43  21  42 N5        30.31S
GRANITE FALLS  SUNNY     37  25  62 SW5       30.32S
CANBY          SUNNY     38  19  48 CALM      30.31S
MARSHALL       SUNNY     37  21  52 N5        30.29F
REDWOOD FALLS  SUNNY     39  25  57 N8        30.30S
OLIVIA         SUNNY     36  28  75 W7        30.29F
PIPESTONE      MOSUNNY   39  18  41 NE5       30.27R
WINDOM         MOSUNNY   41  28  60 NE5       30.28F
WORTHINGTON    MOSUNNY   43  21  42 N8        30.29S
JACKSON        MOSUNNY   43  27  52 NW6       30.27F
TRACY          SUNNY     37  25  60 CALM      30.29S
SLAYTON        MOSUNNY   37  22  54 NE6       30.28S
$$
MNZ065>067-074>077-082>085-091>093-180000-
   South Central Minnesota

CITY           SKY/WX    TMP DP  RH WIND       PRES   REMARKS
MANKATO        PTSUNNY   39  28  65 NW6       30.30S
NEW ULM        SUNNY     39  28  65 NW5       30.29S
ST JAMES       MOSUNNY   43  28  56 N7        30.30S
FAIRMONT       SUNNY     43  28  56 NW9       30.30S
GLENCOE        MOSUNNY   40  26  56 NW8       30.29S
FARIBAULT      CLOUDY    45  27  49 W9        30.28F
OWATONNA       PTSUNNY   37  28  70 NW6       30.28F
WASECA         CLOUDY    41  32  70 NW9       30.30S
ALBERT LEA     MOSUNNY   39  30  70 N7        30.27S
$$
MNZ078>079-086>088-094>096-180000-
   Southeast Minnesota

CITY           SKY/WX    TMP DP  RH WIND       PRES   REMARKS
ROCHESTER      CLOUDY    37  29  72 N12       30.27S
RED WING       PTSUNNY   41  28  60 CALM      30.28F
STANTON        MOSUNNY   40  28  61 CALM      30.28S
DODGE CENTER   CLOUDY    39  30  70 N10       30.27F
WINONA         CLOUDY    39  30  70 N9        30.30R
AUSTIN         CLOUDY    37  30  75 N7        30.27S
PRESTON        CLOUDY    38  30  74 NW9       30.28R
$$
ABBREVIATIONS USED IN REMARKS
   TC - TEMPERATURES IN CELSIUS
  WCI - WIND CHILL INDEX
   HX - HEAT INDEX
  VSB - VISIBILITY
$$


USA.gov is the U.S. government's official web portal to all federal, state and local government web resources and services.